Regional Weather Roundup
Issued by NWS Cleveland, OH

Home | Current Version | Previous Version | Text Only | Print | Product List | Glossary Off
Versions: 1 2 3 4 5 6 7 8 9 10 11 12 13 14 15 16 17 18 19 20 21 22 23 24 25 26 27 28 29 30 31 32 33 34 35 36 37 38 39 40 41 42 43 44 45 46 47 48 49 50

000
ASUS41 KCLE 220910
RWRCLE
OHIO REGIONAL WEATHER ROUNDUP
NATIONAL WEATHER SERVICE WILMINGTON, OH
500 AM EDT TUE JUL 22 2014

NOTE: "FAIR" INDICATES FEW OR NO CLOUDS BELOW 12,000 FEET WITH NO
SIGNIFICANT WEATHER AND/OR OBSTRUCTIONS TO VISIBILITY.

OHZ001>008-015>018-024>027-034-035-043-044-221000-
   NORTHWEST OHIO

CITY           SKY/WX    TMP DP  RH WIND       PRES   REMARKS
DEFIANCE       CLEAR     65  61  87 CALM      30.11R FOG
FINDLAY        CLEAR     69  62  78 CALM      30.10R
TOLEDO EXPRESS CLEAR     62  59  90 CALM      30.11R
TOLEDO METCALF CLEAR     67  58  72 CALM      30.11S
LIMA           CLEAR     67  63  87 CALM      30.11R FOG
$$

OHZ009>014-019>023-028>033-038-089-221000-
   NORTHEAST OHIO

CITY           SKY/WX    TMP DP  RH WIND       PRES   REMARKS
CLE-HOPKINS    CLEAR     63  58  83 CALM      30.13S
CLE-LAKEFRONT  CLEAR     70  61  73 S9        30.10R
CUY CO. ARPT   NOT AVBL
LORAIN-ELYRIA  CLEAR     66  59  78 CALM      30.12S
ASHTABULA      CLEAR     62  60  93 CALM      30.13F FOG
AKRON-CANTON   CLEAR     69  64  84 CALM      30.13S
WOOSTER        CLEAR     62  60  93 CALM      30.14R
MANSFIELD      CLEAR     66  61  84 S3        30.14S
YOUNGSTOWN     CLEAR     65  63  93 E3        30.13S
$$

OHZ042-051>053-060>062-070>072-077>081-221000-
  SOUTHWEST OHIO

CITY           SKY/WX    TMP DP  RH WIND       PRES   REMARKS
CINC-COVINGTON CLEAR     73  67  81 E3        30.09S
CINC-LUNKEN    CLEAR     66  66 100 CALM      30.09S FOG
HAMILTON       CLEAR     65  64  97 CALM      30.10S FOG
DAYTON         CLEAR     68  64  87 CALM      30.12R
WRIGHT-PAT AFB CLEAR     65  64  94 CALM      30.11R
DAYTON GENERAL CLEAR     68  65  90 NE3       30.10S
WILMINGTON     CLEAR     66  63  90 E3        30.11S
$$

OHZ036-037-039>041-045>050-054>059-063>069-073>076-082>088-221000-
  CENTRAL AND SOUTHEAST OHIO

CITY           SKY/WX    TMP DP  RH WIND       PRES   REMARKS
COLUMBUS       CLEAR     71  66  84 CALM      30.10S HAZE
OSU AIRPORT    CLEAR     67  66  97 CALM      30.11S FOG
BOLTON FIELD   CLEAR     65  65 100 CALM      30.11F FOG
RICKENBACK AFB CLEAR     68  63  84 E3        30.10S FOG
NEWARK         FOG       64  62  93 CALM      30.11S VSB 1/4
MARION         CLEAR     66  61  84 CALM      30.12S
LANCASTER      FOG       65  63  93 CALM      30.11S VSB 1/2
ZANESVILLE     PTCLDY    66  64  93 CALM      30.12R FOG
NEW PHILLY     FOG       64  64 100 CALM      30.13S VSB 1/2
$$


USA.gov is the U.S. government's official web portal to all federal, state and local government web resources and services.